Change the Weather History Date:

Saturday, February 22, 2014

  Actual Average Record
Temperature  
Mean Temperature 18 °F 25 °F  
Max Temperature 24 °F 35 °F 66 °F (2002)
Min Temperature 12 °F 16 °F -12 °F (2015)
Degree Days  
Heating Degree Days 47 40  
Month to date heating degree days 1105 929  
Since 1 July heating degree days 5799 5458  
Cooling Degree Days 0 0  
Month to date cooling degree days 0 0  
Year to date cooling degree days 0 0  
Moisture  
Dew Point 10 °F    
Average Humidity 73    
Maximum Humidity 84    
Minimum Humidity 61    
Precipitation  
Precipitation 0.00 in 0.01 in 0.15 in (2012)
Month to date precipitation 0.51 0.36  
Year to date precipitation 0.71 0.56  
Sea Level Pressure  
Sea Level Pressure 30.16 in    
Wind  
Wind Speed 11 mph (NNW)    
Max Wind Speed 21 mph    
Max Gust Speed 23 mph    
T = Trace of Precipitation, MM = Missing Value Source: NWS Daily Summary

Daily Weather History Graph

Daily Weather History Graph

Search for Another Location

Airport or City:

Trip Planner

Search our weather history database for the weather conditions in past years. The results will help you decide how hot, cold, wet, or windy it might be!

Date:

Astronomy

Feb. 22, 2014 Rise Set
Actual Time 6:37 AM MST 5:25 PM MST
Civil Twilight 6:08 AM MST 5:55 PM MST
Nautical Twilight 5:33 AM MST 6:29 PM MST
Astronomical Twilight 4:59 AM MST 7:03 PM MST
Moon 12:41 AM MST (2/22) 10:31 AM MST (2/22)
Length of Visible Light 11h 47m
Length of Day
10h 48m
Waning Gibbous, 49% of the Moon is Illuminated
Feb 22
Waning Gibbous
Mar 1
New
Mar 8
First Quarter
Mar 16
Full
Mar 23
Last Quarter

Hourly Weather History & Observations

Time (MST) Temp. Windchill Dew Point Humidity Pressure Visibility Wind Dir Wind Speed Gust Speed Precip Events Conditions
12:56 AM 21.0 °F 10.6 °F 15.1 °F 78% 30.00 in - North 9.2 mph - N/A   Unknown
1:56 AM 19.9 °F 8.6 °F 15.1 °F 81% 30.00 in - North 10.4 mph - N/A   Unknown
2:56 AM 19.9 °F 9.3 °F 15.1 °F 81% 30.00 in - North 9.2 mph - N/A   Unknown
3:56 AM 19.0 °F 6.8 °F 10.9 °F 71% 30.02 in - North 11.5 mph - N/A   Unknown
4:56 AM 18.0 °F 8.7 °F 9.0 °F 68% 30.04 in - NNW 6.9 mph - N/A   Unknown
5:56 AM 15.1 °F 4.2 °F 6.1 °F 68% 30.08 in - NNW 8.1 mph - N/A   Unknown
6:56 AM 12.9 °F -0.2 °F 5.0 °F 71% 30.12 in - NNW 10.4 mph - N/A   Unknown
7:56 AM 15.1 °F 3.3 °F 6.1 °F 68% 30.14 in - NNW 9.2 mph - N/A   Unknown
8:56 AM 16.0 °F 6.3 °F 7.0 °F 68% 30.15 in - North 6.9 mph - N/A   Unknown
9:56 AM 18.0 °F 4.8 °F 8.1 °F 65% 30.16 in - NNW 12.7 mph - N/A   Unknown
10:56 AM 17.1 °F 3.0 °F 8.1 °F 68% 30.17 in - NNW 13.8 mph - N/A   Unknown
11:56 AM 21.0 °F 6.6 °F 10.9 °F 65% 30.16 in - NNW 17.3 mph 23.0 mph N/A   Unknown
12:56 PM 21.9 °F 8.7 °F 14.0 °F 72% 30.16 in - NNW 15.0 mph - N/A   Unknown
1:56 PM 21.9 °F 8.7 °F 12.9 °F 68% 30.16 in - NW 15.0 mph - N/A   Unknown
2:56 PM 21.9 °F 8.2 °F 12.0 °F 66% 30.16 in - NNW 16.1 mph - N/A   Unknown
3:56 PM 21.0 °F 10.6 °F 12.0 °F 68% 30.19 in - NNW 9.2 mph - N/A   Unknown
4:56 PM 21.0 °F 8.1 °F 12.0 °F 68% 30.20 in - NNW 13.8 mph - N/A   Unknown
5:56 PM 18.0 °F 6.1 °F 10.9 °F 74% 30.24 in - NNW 10.4 mph - N/A   Unknown
6:56 PM 19.0 °F 10.0 °F 10.9 °F 71% 30.27 in - NNW 6.9 mph - N/A   Unknown
7:56 PM 19.0 °F 7.5 °F 10.9 °F 71% 30.28 in - NNW 10.4 mph - N/A   Unknown
8:56 PM 18.0 °F 4.8 °F 8.1 °F 65% 30.29 in - NNW 12.7 mph - N/A   Unknown
9:56 PM 18.0 °F 4.2 °F 7.0 °F 62% 30.30 in - NNW 13.8 mph - N/A   Unknown
10:56 PM 18.0 °F 4.8 °F 7.0 °F 62% 30.31 in - NNW 12.7 mph - N/A   Unknown
11:56 PM 16.0 °F 6.3 °F 7.0 °F 68% 30.32 in - North 6.9 mph - N/A   Unknown